TimeMDT,TemperatureF,Dew PointF,Humidity,Sea Level PressureIn,VisibilityMPH,Wind Direction,Wind SpeedMPH,Gust SpeedMPH,PrecipitationIn,Events,Conditions,WindDirDegrees,DateUTC
12:53 AM,51.1,28.0,41,29.92,10.0,Calm,Calm,-,N/A,,Clear,0,2012-10-06 06:53:00
1:53 AM,48.0,27.0,44,29.95,10.0,South,3.5,-,N/A,,Clear,170,2012-10-06 07:53:00
2:53 AM,46.0,28.9,51,29.95,10.0,SE,3.5,-,N/A,,Clear,140,2012-10-06 08:53:00
3:53 AM,46.9,28.9,50,29.95,10.0,SSE,4.6,-,N/A,,Clear,150,2012-10-06 09:53:00
4:53 AM,46.0,28.0,50,29.96,10.0,South,6.9,-,N/A,,Clear,170,2012-10-06 10:53:00
5:53 AM,45.0,26.1,48,29.99,10.0,SE,5.8,-,N/A,,Clear,140,2012-10-06 11:53:00
6:53 AM,43.0,26.1,51,30.02,10.0,SE,3.5,-,N/A,,Clear,130,2012-10-06 12:53:00
7:53 AM,43.0,26.1,51,30.05,10.0,South,3.5,-,N/A,,Clear,170,2012-10-06 13:53:00
8:53 AM,46.0,27.0,47,30.06,10.0,South,3.5,-,N/A,,Clear,170,2012-10-06 14:53:00
9:53 AM,52.0,16.0,24,30.07,10.0,NNW,10.4,-,N/A,,Clear,340,2012-10-06 15:53:00
10:53 AM,52.0,14.0,22,30.07,10.0,NNE,6.9,-,N/A,,Clear,30,2012-10-06 16:53:00
11:53 AM,55.0,10.9,17,30.05,10.0,Variable,4.6,-,N/A,,Clear,0,2012-10-06 17:53:00
12:53 PM,59.0,7.0,13,30.02,10.0,West,6.9,-,N/A,,Clear,280,2012-10-06 18:53:00
1:53 PM,60.1,7.0,12,29.98,10.0,WNW,10.4,-,N/A,,Clear,300,2012-10-06 19:53:00
2:53 PM,61.0,3.0,10,29.96,10.0,North,4.6,-,N/A,,Clear,350,2012-10-06 20:53:00
3:53 PM,62.1,-0.0,8,29.94,10.0,WNW,9.2,-,N/A,,Clear,290,2012-10-06 21:53:00
5:53 PM,59.0,6.1,12,29.94,10.0,NNW,9.2,-,N/A,,Clear,330,2012-10-06 23:53:00
6:53 PM,53.1,7.0,16,29.98,10.0,NNW,6.9,-,N/A,,Clear,330,2012-10-07 00:53:00
7:53 PM,48.9,12.0,23,30.00,10.0,South,4.6,-,N/A,,Clear,180,2012-10-07 01:53:00
8:53 PM,46.0,12.9,26,30.02,10.0,SSE,11.5,-,N/A,,Clear,160,2012-10-07 02:53:00
9:53 PM,42.1,15.1,34,30.01,10.0,Calm,Calm,-,N/A,,Clear,0,2012-10-07 03:53:00
11:53 PM,39.9,15.1,36,30.00,10.0,SE,9.2,-,N/A,,Clear,130,2012-10-07 05:53:00